Time,TemperatureF,DewpointF,PressureIn,WindDirection,WindDirectionDegrees,WindSpeedMPH,WindSpeedGustMPH,Humidity,HourlyPrecipIn,Conditions,Clouds,dailyrainin,SoftwareType,DateUTC
2013-01-09 10:00:00,39.2,33.3,29.14,WNW,293,3.1,3.1,79,0.01,,,0.00,WUHU216HW,2013-01-09 15:00:00,
2013-01-09 10:05:00,39.2,33.3,29.14,WNW,293,3.1,3.1,79,0.01,,,0.00,WUHU216HW,2013-01-09 15:05:00,
2013-01-09 10:30:00,40.3,32.9,29.15,West,270,5.1,5.1,75,0.00,,,0.00,WUHU216HW,2013-01-09 15:30:00,
2013-01-09 10:35:00,40.3,32.9,29.15,West,270,5.1,5.1,75,0.00,,,0.00,WUHU216HW,2013-01-09 15:35:00,
2013-01-09 11:00:00,40.5,32.9,29.17,WSW,248,3.4,3.4,74,0.00,,,0.00,WUHU216HW,2013-01-09 16:00:00,
2013-01-09 11:05:00,40.5,32.9,29.17,WSW,248,3.4,3.4,74,0.00,,,0.00,WUHU216HW,2013-01-09 16:05:00,
2013-01-09 11:30:00,40.9,32.5,29.16,NNW,338,8.7,8.7,72,0.03,,,0.00,WUHU216HW,2013-01-09 16:30:00,
2013-01-09 11:35:00,40.9,32.5,29.16,NNW,338,8.7,8.7,72,0.03,,,0.00,WUHU216HW,2013-01-09 16:35:00,
2013-01-09 12:00:00,41.8,32.0,29.16,West,270,5.4,5.4,68,0.04,,,0.03,WUHU216HW,2013-01-09 17:00:00,
2013-01-09 12:05:00,41.8,32.0,29.16,West,270,5.4,5.4,68,0.04,,,0.03,WUHU216HW,2013-01-09 17:05:00,
2013-01-09 12:30:00,42.1,32.3,29.15,NW,315,4.0,4.0,68,0.03,,,0.04,WUHU216HW,2013-01-09 17:30:00,
2013-01-09 12:35:00,42.1,32.3,29.15,NW,315,4.0,4.0,68,0.03,,,0.04,WUHU216HW,2013-01-09 17:35:00,
2013-01-09 13:00:00,42.7,31.3,29.15,SW,225,5.1,5.1,64,0.03,,,0.06,WUHU216HW,2013-01-09 18:00:00,
2013-01-09 13:05:00,42.7,31.3,29.15,SW,225,5.1,5.1,64,0.03,,,0.06,WUHU216HW,2013-01-09 18:05:00,
2013-01-09 13:30:00,43.2,29.8,29.15,WNW,293,3.8,3.8,59,0.02,,,0.07,WUHU216HW,2013-01-09 18:30:00,
2013-01-09 13:35:00,43.2,29.8,29.15,WNW,293,3.8,3.8,59,0.02,,,0.07,WUHU216HW,2013-01-09 18:35:00,
2013-01-09 14:00:00,43.9,30.1,29.16,NW,315,5.4,5.4,58,0.02,,,0.08,WUHU216HW,2013-01-09 19:00:00,
2013-01-09 14:05:00,43.9,30.1,29.16,NW,315,5.4,5.4,58,0.02,,,0.08,WUHU216HW,2013-01-09 19:05:00,
2013-01-09 14:30:00,44.1,28.4,29.17,SW,225,6.3,6.3,54,0.01,,,0.09,WUHU216HW,2013-01-09 19:30:00,
2013-01-09 14:35:00,44.1,28.4,29.17,SW,225,6.3,6.3,54,0.01,,,0.09,WUHU216HW,2013-01-09 19:35:00,
2013-01-09 15:00:00,43.9,28.3,29.20,SSW,203,4.0,4.0,54,0.01,,,0.10,WUHU216HW,2013-01-09 20:00:00,
2013-01-09 15:05:00,43.9,28.3,29.20,SSW,203,4.0,4.0,54,0.01,,,0.10,WUHU216HW,2013-01-09 20:05:00,
2013-01-09 15:30:00,43.9,27.5,29.21,West,270,10.1,10.1,52,0.01,,,0.10,WUHU216HW,2013-01-09 20:30:00,
2013-01-09 15:35:00,43.9,27.5,29.21,West,270,10.1,10.1,52,0.01,,,0.10,WUHU216HW,2013-01-09 20:35:00,
2013-01-09 16:00:00,43.6,26.6,29.22,NW,315,2.5,2.5,51,0.01,,,0.11,WUHU216HW,2013-01-09 21:00:00,
2013-01-09 16:05:00,43.6,26.6,29.22,NW,315,2.5,2.5,51,0.01,,,0.11,WUHU216HW,2013-01-09 21:05:00,
2013-01-09 16:30:00,43.2,26.3,29.25,WNW,293,7.6,7.6,51,0.00,,,0.11,WUHU216HW,2013-01-09 21:30:00,
2013-01-09 16:35:00,43.2,26.3,29.25,WNW,293,7.6,7.6,51,0.00,,,0.11,WUHU216HW,2013-01-09 21:35:00,
2013-01-09 17:00:00,42.1,24.3,29.26,West,270,6.3,6.3,49,0.00,,,0.11,WUHU216HW,2013-01-09 22:00:00,
2013-01-09 17:05:00,42.1,24.3,29.26,West,270,6.3,6.3,49,0.00,,,0.11,WUHU216HW,2013-01-09 22:05:00,
2013-01-09 17:30:00,41.0,24.2,29.27,West,270,4.9,4.9,51,0.00,,,0.11,WUHU216HW,2013-01-09 22:30:00,
2013-01-09 17:35:00,41.0,24.2,29.27,West,270,4.9,4.9,51,0.00,,,0.11,WUHU216HW,2013-01-09 22:35:00,
2013-01-09 18:30:00,39.2,26.0,29.33,WNW,293,5.4,5.4,59,0.00,,,0.11,WUHU216HW,2013-01-09 23:30:00,
2013-01-09 18:35:00,39.2,26.0,29.33,WNW,293,5.4,5.4,59,0.00,,,0.11,WUHU216HW,2013-01-09 23:35:00,
2013-01-09 19:00:00,38.5,26.6,29.36,NW,315,4.9,4.9,62,0.00,,,0.11,WUHU216HW,2013-01-10 00:00:00,
2013-01-09 19:05:00,38.5,26.6,29.36,NW,315,4.9,4.9,62,0.00,,,0.11,WUHU216HW,2013-01-10 00:05:00,
2013-01-09 19:30:00,37.8,26.3,29.39,NW,315,4.5,4.5,63,0.00,,,0.11,WUHU216HW,2013-01-10 00:30:00,
2013-01-09 19:35:00,37.8,26.3,29.39,NW,315,4.5,4.5,63,0.00,,,0.11,WUHU216HW,2013-01-10 00:35:00,
2013-01-09 20:00:00,36.9,26.2,29.40,WNW,293,3.1,3.1,65,0.00,,,0.11,WUHU216HW,2013-01-10 01:00:00,
2013-01-09 20:05:00,36.9,26.2,29.40,WNW,293,3.1,3.1,65,0.00,,,0.11,WUHU216HW,2013-01-10 01:05:00,
2013-01-09 20:10:00,36.9,26.2,29.40,WNW,293,3.1,3.1,65,0.00,,,0.11,WUHU216HW,2013-01-10 01:10:00,
2013-01-09 20:30:00,36.2,26.3,29.41,West,270,6.7,6.7,67,0.00,,,0.11,WUHU216HW,2013-01-10 01:30:00,
2013-01-09 20:35:00,36.2,26.3,29.41,West,270,6.7,6.7,67,0.00,,,0.11,WUHU216HW,2013-01-10 01:35:00,
2013-01-09 21:00:00,35.6,26.1,29.41,WNW,293,6.3,6.3,68,0.00,,,0.11,WUHU216HW,2013-01-10 02:00:00,
2013-01-09 21:05:00,35.6,26.1,29.41,WNW,293,6.3,6.3,68,0.00,,,0.11,WUHU216HW,2013-01-10 02:05:00,
2013-01-09 21:30:00,34.9,26.1,29.43,North,0,4.7,4.7,70,0.00,,,0.11,WUHU216HW,2013-01-10 02:30:00,
2013-01-09 21:35:00,34.9,26.1,29.43,North,0,4.7,4.7,70,0.00,,,0.11,WUHU216HW,2013-01-10 02:35:00,
2013-01-09 22:00:00,34.2,25.4,29.44,NW,315,3.1,3.1,70,0.00,,,0.11,WUHU216HW,2013-01-10 03:00:00,
2013-01-09 22:05:00,34.2,25.4,29.44,NW,315,3.1,3.1,70,0.00,,,0.11,WUHU216HW,2013-01-10 03:05:00,
2013-01-09 22:30:00,33.7,25.2,29.45,WNW,293,2.5,2.5,71,0.00,,,0.11,WUHU216HW,2013-01-10 03:30:00,